Flight Track Log - Related Links

Times and Time Zones

All times are in EDT time to prevent confusion due to time zone crossing. See the SWA718 flight status page for this flight to view local times or setup timezone preferences in your user account.

Time Position Orientation Groundspeed Altitude Reporting Facility
EDT Latitude Longitude Course Direction KTS MPH feet Rate Location/Type
Mon 11:52:26 PM 29.6261 -95.2567 132° Southeast 145 167 1,400  Level Houston Center
Mon 11:53:09 PM 29.6000 -95.2236 132° Southeast 218 251 2,600 2,019 Climbing Houston Center
Mon 11:54:10 PM 29.5592 -95.1681 130° Southeast 223 257 4,900 2,508 Climbing Houston Center
Mon 11:55:11 PM 29.5406 -95.0889 105° East 272 313 7,700 2,557 Climbing Houston Center
Mon 11:56:12 PM 29.5469 -94.9983 85° East 287 330 10,100 1,721 Climbing Houston Center
Mon 11:57:13 PM 29.5756 -94.8947 72° East 333 383 11,200 1,983 Climbing Houston Center
Mon 11:58:13 PM 29.6053 -94.7819 73° East 362 417 14,100 2,430 Climbing Houston Center
Mon 11:59:14 PM 29.6358 -94.6694 73° East 365 420 16,100 1,820 Climbing Houston Center
Tue 12:00:15 AM 29.6453 -94.5464 85° East 392 451 17,800 1,785 Climbing Houston Center
Tue 12:01:15 AM 29.6422 -94.4206 92° East 393 452 19,700 1,785 Climbing Houston Center
Tue 12:02:16 AM 29.6425 -94.2917 90° East 398 458 21,400 1,279 Climbing Houston Center
Tue 12:03:17 AM 29.6414 -94.1542 90° East 411 473 22,300 1,339 Climbing Houston Center
Tue 12:04:17 AM 29.6400 -94.0167 91° East 429 494 24,100 1,488 Climbing Houston Center
Tue 12:05:18 AM 29.6381 -93.8783 91° East 430 495 25,300 1,180 Climbing Houston Center
Tue 12:06:19 AM 29.6356 -93.7075 91° East 445 512 26,500 1,091 Climbing Houston Center
Tue 12:07:19 AM 29.6339 -93.5619 91° East 455 524 27,500 1,140 Climbing Houston Center
Tue 12:08:20 AM 29.6322 -93.4150 91° East 459 528 28,800 1,289 Climbing Houston Center
Tue 12:09:20 AM 29.6294 -93.2697 91° East 459 528 30,100 1,140 Climbing Houston Center
Tue 12:10:21 AM 29.6272 -93.1233 91° East 459 528 31,100 1,131 Climbing Houston Center
Tue 12:11:22 AM 29.6244 -92.9772 91° East 459 528 32,400 1,140 Climbing Houston Center
Tue 12:12:22 AM 29.6094 -92.8353 97° East 458 527 33,400 893 Climbing Houston Center
Tue 12:13:23 AM 29.5864 -92.6939 101° East 456 525 34,200 793 Climbing Houston Center
Tue 12:14:23 AM 29.5647 -92.5528 100° East 452 520 35,000 397 Climbing Houston Center
Tue 12:15:24 AM 29.5408 -92.4128 101° East 448 516 35,000  Level Houston Center
Tue 12:16:24 AM 29.5181 -92.2697 100° East 452 520 35,000  Level Houston Center
Tue 12:17:25 AM 29.4947 -92.1281 101° East 452 520 35,000  Level Houston Center
Tue 12:18:25 AM 29.4719 -91.9856 100° East 453 521 35,000  Level Houston Center
Tue 12:19:26 AM 29.4469 -91.8419 101° East 454 522 35,000  Level Houston Center
Tue 12:20:26 AM 29.4233 -91.6944 100° East 455 524 35,000  Level Houston Center
Tue 12:21:27 AM 29.3986 -91.5517 101° East 455 524 35,000  Level Houston Center
Tue 12:22:27 AM 29.3747 -91.4083 101° East 456 525 35,000  Level Houston Center
Tue 12:23:28 AM 29.3503 -91.2658 101° East 457 526 35,000  Level Houston Center
Tue 12:24:28 AM 29.3244 -91.1231 102° East 457 526 35,000  Level Houston Center
Tue 12:25:29 AM 29.3003 -90.9797 101° East 457 526 35,000  Level Houston Center
Tue 12:26:29 AM 29.2689 -90.8083 102° East 460 529 35,000  Level Houston Center
Tue 12:27:30 AM 29.2408 -90.6661 103° East 460 529 35,000  Level Houston Center
Tue 12:28:30 AM 29.2136 -90.5244 102° East 460 529 35,000  Level Houston Center
Tue 12:29:31 AM 29.1861 -90.3831 103° East 459 528 35,000  Level Houston Center
Tue 12:30:31 AM 29.1583 -90.2422 103° East 459 528 35,000  Level Houston Center
Tue 12:31:32 AM 29.1300 -90.1014 103° East 459 528 35,000  Level Houston Center
Tue 12:32:32 AM 29.1014 -89.9606 103° East 459 528 35,000  Level Houston Center
Tue 12:33:33 AM 29.0736 -89.8192 103° East 459 528 35,000  Level Houston Center
Tue 12:34:33 AM 29.0453 -89.6772 103° East 459 528 35,000  Level Houston Center
Tue 12:35:34 AM 29.0161 -89.5339 103° East 460 529 35,000  Level Houston Center
Tue 12:36:34 AM 28.9889 -89.3936 102° East 460 529 35,000  Level Houston Center
Tue 12:37:35 AM 28.9911 -89.2481 89° East 462 532 35,000  Level Houston Center
Tue 12:38:35 AM 28.9928 -89.1083 89° East 452 520 35,000  Level Houston Center
Tue 12:39:35 AM 28.9933 -88.9639 90° East 451 519 35,000  Level Houston Center
Tue 12:40:36 AM 28.9950 -88.8197 89° East 454 522 35,000  Level Houston Center
Tue 12:41:36 AM 28.9967 -88.6792 89° East 449 517 35,000  Level Houston Center
Tue 12:42:37 AM 28.9972 -88.5356 90° East 449 517 35,000  Level Houston Center
Tue 12:43:37 AM 28.9997 -88.3878 89° East 461 531 35,000  Level Houston Center
Tue 12:44:37 AM 28.9989 -88.2450 90° East 459 528 35,000 -50 Level Houston Center
Tue 12:45:38 AM 29.0017 -88.0994 89° East 459 528 34,900  Descending Houston Center
Tue 12:46:38 AM 29.0025 -87.9433 90° East 457 526 35,000 50 Climbing Houston Center
Tue 12:47:39 AM 29.0019 -87.8003 90° East 455 524 35,000  Level Houston Center
Tue 12:48:39 AM 29.0028 -87.6583 90° East 451 519 35,000  Level Houston Center
Tue 12:49:39 AM 29.0031 -87.5172 90° East 451 519 35,000  Level Houston Center
Tue 12:50:40 AM 29.0028 -87.3767 90° East 447 514 35,000  Level Houston Center
Tue 12:51:40 AM 29.0019 -87.2361 90° East 446 513 35,000 -50 Level Houston Center
Tue 12:52:40 AM 29.0022 -87.0967 90° East 445 512 34,900  Descending Houston Center
Tue 12:53:41 AM 29.0014 -86.9592 90° East 439 505 35,000 44 Climbing Houston Center
Tue 12:54:57 AM 29.0014 -86.7644 90° East 441 507 35,000  Level Jacksonville Center
Tue 12:55:57 AM 28.9972 -86.6219 92° East 441 507 35,000  Level Jacksonville Center
Tue 12:56:57 AM 28.9969 -86.4817 90° East 441 507 35,000  Level Jacksonville Center
Tue 12:57:57 AM 28.9967 -86.3464 90° East 441 507 35,000  Level Jacksonville Center
Tue 12:58:57 AM 28.9942 -86.2039 91° East 441 507 35,000 -11,000 Level Jacksonville Center
Tue 12:59:57 AM 28.9931 -86.0781 91° East 427 491 13,000 -11,000 Descending Jacksonville Center
Tue 01:00:57 AM 28.9903 -85.9428 91° East 427 491 13,000 7,333 Level Jacksonville Center
Tue 01:02:57 AM 28.9886 -85.6461 90° East 443 510 35,000 7,333 Climbing Jacksonville Center
Tue 01:03:57 AM 28.9872 -85.5083 91° East 443 510 35,000  Level Jacksonville Center
Tue 01:04:57 AM 28.9839 -85.3683 92° East 443 510 35,000  Level Jacksonville Center
Tue 01:05:57 AM 28.9800 -85.2281 92° East 438 504 35,000  Level Jacksonville Center
Tue 01:06:57 AM 28.9783 -85.0903 91° East 438 504 35,000 -50 Level Jacksonville Center
Tue 01:07:57 AM 28.9764 -84.9528 91° East 438 504 34,900  Descending Jacksonville Center
Tue 01:08:57 AM 28.9725 -84.8150 92° East 438 504 35,000 50 Climbing Jacksonville Center
Tue 01:09:57 AM 28.9681 -84.6772 92° East 443 510 35,000  Level Jacksonville Center
Tue 01:10:57 AM 28.9656 -84.5514 91° East 449 517 35,000  Level Jacksonville Center
Tue 01:11:57 AM 28.9631 -84.4114 91° East 443 510 35,000  Level Jacksonville Center
Tue 01:12:57 AM 28.9606 -84.2714 91° East 437 503 35,000  Level Jacksonville Center
Tue 01:13:57 AM 28.9558 -84.1289 92° East 442 509 35,000  Level Jacksonville Center
Tue 01:14:57 AM 28.9508 -83.9889 92° East 442 509 35,000  Level Jacksonville Center
Tue 01:15:57 AM 28.9478 -83.8511 91° East 442 509 35,000  Level Jacksonville Center
Tue 01:16:57 AM 28.9444 -83.7111 92° East 442 509 35,000  Level Jacksonville Center
Tue 01:17:57 AM 28.9411 -83.5689 91° East 442 509 35,000  Level Jacksonville Center
Tue 01:18:57 AM 28.9356 -83.4311 93° East 442 509 35,000 -250 Level Jacksonville Center
Tue 01:19:57 AM 28.9297 -83.2886 93° East 442 509 34,500 -1,500 Descending Jacksonville Center
Tue 01:20:57 AM 28.9261 -83.1511 92° East 437 503 32,000 -2,600 Descending Jacksonville Center
Tue 01:21:57 AM 28.9219 -83.0158 92° East 437 503 29,300 -2,450 Descending Jacksonville Center
Tue 01:22:57 AM 28.9181 -82.8808 92° East 427 491 27,100 -2,200 Descending Jacksonville Center
Tue 01:23:57 AM 28.9136 -82.7575 92° East 413 475 24,900 -2,150 Descending Jacksonville Center
Tue 01:24:57 AM 28.9114 -82.6364 91° East 388 447 22,800 -2,150 Descending Jacksonville Center
Tue 01:25:57 AM 28.9069 -82.5225 93° East 374 430 20,600 -2,300 Descending Jacksonville Center
Tue 01:26:57 AM 28.9025 -82.4086 93° East 361 415 18,200 -2,500 Descending Jacksonville Center
Tue 01:27:57 AM 28.8956 -82.2878 94° East 356 410 15,600 -2,350 Descending Jacksonville Center
Tue 01:28:57 AM 28.8931 -82.1764 91° East 351 404 13,500 -1,850 Descending Jacksonville Center
Tue 01:29:57 AM 28.8881 -82.0672 93° East 346 398 11,900 -1,250 Descending Jacksonville Center
Tue 01:30:57 AM 28.8603 -81.9703 108° East 334 384 11,000 -500 Descending Jacksonville Center
Tue 01:31:57 AM 28.8283 -81.8736 111° Southeast 334 384 10,900 -650 Descending Jacksonville Center
Tue 01:32:57 AM 28.7983 -81.7839 111° Southeast 318 366 9,700 -1,250 Descending Jacksonville Center
Tue 01:33:57 AM 28.7725 -81.7011 110° East 289 333 8,400 -1,450 Descending Jacksonville Center
Tue 01:34:57 AM 28.7447 -81.6211 112° Southeast 276 318 6,800 -1,450 Descending Jacksonville Center
Tue 01:35:57 AM 28.7189 -81.5408 110° East 271 312 5,500 -1,168 Descending Jacksonville Center
Tue 01:37:26 AM 28.6833 -81.4333 111° Southeast 244 281 3,900 -1,049 Descending Orlando TRACON
Tue 01:38:20 AM 28.6333 -81.3833 139° Southeast 240 276 3,000 -526 Descending Orlando TRACON
Tue 01:39:20 AM 28.5833 -81.3500 150° Southeast 187 215 2,900 -350 Descending Orlando TRACON
Tue 01:40:20 AM 28.5500 -81.3167 139° Southeast 181 208 2,300 -800 Descending Orlando TRACON
Tue 01:41:20 AM 28.5000 -81.3000 164° South 138 159 1,300 -800 Descending Orlando TRACON
Tue 01:42:20 AM 28.4667 -81.3000 180° South 141 162 700 -600 Descending Orlando TRACON
Tue 01:44:00 AM 28.4294 -81.3090 180° South  Level Estimated
Tue 01:51:00 AM 28.4294 -81.3090 24° Northeast  Level Estimated
Tue 01:52:00 AM 28.4294 -81.3090 24° Northeast  Level Estimated
Tue 01:53:00 AM 28.4294 -81.3090 24° Northeast  Level Estimated
Tue 01:54:00 AM 28.4294 -81.3090 24° Northeast  Level Estimated

Login

Don't have an account? Register now (free) for customized features, flight alerts, and more!